Find USA 575

NORAD ID: 67487 Int'l Des: 2026-011 Owner: NROC Country: US operational
LEOCIRCULAR

リアルタイム位置

3D地球を読み込み中...

USA 575について

説明を読み込み中...

次回通過

Passes for default location (London). Set your location on the main map for personalized predictions.

高度履歴

Loading altitude history...

軌道要素

1 67487C 26012D 26027.43381944 -.01313400 00000+0 -23850-2 0 271
2 67487 42.9974 194.9127 0001243 281.1516 194.8772 16.01778678 16
Epoch: Jan 27, 2026 • Age: 2286 hours

現在のステータス

高度 24608668.3 km
速度 0.13 km/s
衛星直下点 42.99°N, 146.61°W
打ち上げ日 Jan 17, 2026
運用期間 0.2 years
タイプ military

技術仕様

分類 Payload
質量 800.00 kg
乾燥質量 750.00 kg
総質量 800.00 kg
長さ 0.30 m
直径 4.10 m
スパン 29.00 m
形状 Box + pan
製造者 SPXS
バスタイプ Starshield
フェーズステータス In Orbit
所有者/国 NROC/US

Most Searched